Wind_Speed
23 22 26 29 32 32 41 42 39 37 36 36 35 35 35 32 30 29 29 30 28 30 34 35 34 29 31 28 25 38 37 28
26 25 25 26 29 31 44 44 41 40 38 38 36 36 34 33 32 30 32 30 28 30 31 31 35 34 31 30 27 41 35 34
25 27 28 29 32 37 43 44 42 40 38 35 34 34 32 31 33 31 33 31 29 31 32 35 37 32 32 36 33 39 39 36
24 26 29 30 35 36 42 43 42 39 37 32 31 32 27 31 30 33 29 28 29 32 33 35 34 35 36 35 34 39 43 36
22 26 29 31 32 36 40 41 44 39 36 32 32 26 27 28 30 32 30 29 30 32 34 37 35 38 34 38 41 34 42 40
15 20 26 28 28 35 37 39 42 38 35 33 28 25 27 28 31 29 30 31 31 29 35 40 36 39 31 37 40 39 45 40
12 13 20 24 25 34 34 36 36 37 35 31 25 24 25 29 28 27 28 28 24 30 33 37 37 35 35 35 41 44 41 40
9 8 13 20 27 35 33 34 33 32 31 28 24 23 26 27 27 25 24 23 24 23 32 43 34 39 39 30 40 47 41 40
6 6 12 21 30 31 30 32 31 30 29 24 22 23 24 25 24 22 21 21 23 22 28 37 39 39 38 31 42 43 38 36
8 13 11 19 29 28 29 32 30 30 27 23 20 21 23 24 21 20 19 19 18 22 25 24 34 38 40 36 46 40 38 36
16 15 7 14 22 24 26 28 33 30 27 23 19 19 22 22 18 16 17 14 15 19 24 24 31 32 39 36 39 38 35 35
13 21 14 13 22 21 22 27 31 30 28 25 18 17 22 18 15 13 13 13 15 15 19 22 24 33 35 46 38 38 36 34
7 19 18 19 19 18 20 23 30 30 28 22 17 16 20 15 13 11 9 8 10 10 19 18 27 34 38 41 41 39 37 35
4 12 17 21 20 15 19 17 25 32 28 21 17 16 18 13 11 10 8 8 13 12 16 21 18 16 23 32 32 31 20 18
4 6 14 23 25 21 21 25 31 33 26 21 19 16 17 12 11 10 10 9 11 14 19 16 17 15 17 17 23 24 22 20
7 7 10 18 26 36 30 24 33 33 27 24 22 19 18 12 11 12 13 14 16 16 18 19 17 17 22 25 25 24 23 25
12 7 9 12 18 24 28 31 39 32 29 28 25 22 20 16 13 15 15 15 17 18 18 17 19 21 20 20 21 21 21 19
18 12 11 14 17 24 31 39 41 35 32 29 27 25 24 20 19 18 19 20 20 20 20 18 16 14 14 15 17 19 20 22
12 14 13 18 19 28 37 38 37 34 31 29 27 26 26 25 24 22 22 22 22 22 22 20 19 19 19 20 21 24 25 25
Wind_Direction
242 239 234 232 227 231 236 235 235 236 240 246 251 254 257 264 271 280 292 282 261 242 233 235 232 245 228 211 219 207 198 195
248 240 236 229 225 229 234 235 239 236 243 249 254 259 261 264 270 277 289 275 259 236 232 230 233 234 208 212 216 206 200 200
248 244 237 231 230 232 237 232 237 234 243 253 256 257 255 260 268 278 286 271 257 238 229 227 227 220 215 212 215 202 209 202
249 242 236 231 236 240 237 233 236 233 243 250 255 250 251 261 270 283 277 269 259 244 231 226 230 230 227 219 210 216 204 204
261 245 235 233 226 245 234 233 236 232 240 251 253 248 257 265 274 279 269 265 258 245 233 225 231 225 229 221 214 214 205 206
273 245 241 228 227 240 231 231 234 233 240 249 240 247 260 268 276 274 265 266 257 241 235 230 232 226 219 215 217 214 204 209
285 264 234 223 213 238 225 226 231 235 237 234 236 249 264 275 277 268 264 274 250 245 234 232 235 225 218 208 205 205 203 210
285 267 225 206 214 230 217 222 230 228 228 224 238 253 265 275 272 268 272 261 252 233 227 229 225 211 213 208 204 199 207 214
297 272 226 210 217 220 218 226 222 222 213 223 239 257 271 271 271 265 266 260 233 258 219 223 218 224 209 212 209 198 209 212
261 238 238 235 232 226 218 217 215 206 209 222 241 262 270 270 267 264 264 256 247 237 206 219 213 213 217 210 198 199 208 211
241 221 243 238 222 212 202 202 204 201 210 221 241 266 271 269 271 267 270 246 241 216 213 227 209 206 217 210 199 207 214 218
231 226 212 229 197 192 197 204 204 206 210 222 240 262 267 267 272 267 266 255 219 212 202 195 197 213 209 208 206 212 216 223
274 229 227 226 215 205 203 210 212 206 212 221 233 251 262 266 264 255 262 232 181 187 163 166 185 189 189 192 202 211 224 231
276 236 229 225 223 215 212 226 218 205 211 216 223 236 253 258 254 234 237 207 188 213 191 190 177 194 212 208 212 210 221 219
338 276 232 226 226 245 238 229 206 205 207 212 215 221 241 241 240 221 214 193 181 175 191 205 186 204 199 204 203 211 226 238
335 298 269 226 217 212 227 232 206 206 203 206 210 213 227 222 219 217 205 197 194 198 203 215 217 230 232 231 230 227 238 230
304 270 268 273 240 220 210 210 206 200 203 204 207 210 217 211 207 206 207 204 198 197 201 206 211 216 215 219 227 224 227 234
302 269 243 232 238 214 196 211 206 201 206 205 208 213 213 207 205 202 200 199 201 203 202 204 206 200 200 205 211 221 230 229
309 283 241 237 217 206 203 204 206 202 208 208 211 213 214 209 207 208 207 206 206 205 208 213 218 219 219 221 223 227 230 238
Height
3046 3047 3051 3054 3057 3058 3057 3060 3065 3069 3072 3073 3075 3076 3077 3078 3078 3077 3075 3073 3074 3075 3077 3079 3080 3086 3088 3094 3098 3103 3106 3114
3039 3041 3044 3046 3049 3050 3049 3053 3057 3062 3064 3066 3068 3069 3070 3071 3070 3071 3069 3068 3067 3068 3071 3073 3072 3081 3085 3090 3095 3099 3103 3111
3031 3033 3035 3037 3040 3039 3041 3045 3048 3055 3058 3060 3061 3062 3063 3064 3064 3063 3062 3061 3062 3063 3065 3066 3072 3077 3080 3083 3089 3094 3100 3105
3022 3024 3027 3028 3030 3031 3033 3039 3042 3048 3051 3053 3054 3055 3057 3057 3057 3056 3055 3055 3055 3056 3058 3061 3066 3070 3070 3078 3083 3090 3094 3099
3011 3014 3017 3020 3023 3022 3026 3032 3034 3041 3044 3047 3048 3050 3051 3052 3050 3049 3047 3047 3048 3048 3051 3054 3058 3064 3066 3074 3078 3085 3090 3095
3003 3005 3007 3011 3016 3015 3019 3025 3028 3034 3039 3041 3043 3045 3045 3045 3044 3042 3041 3041 3040 3041 3044 3048 3051 3056 3061 3066 3072 3078 3086 3092
2998 2998 3000 3004 3010 3007 3012 3018 3023 3028 3033 3036 3038 3040 3039 3038 3037 3035 3034 3031 3032 3032 3033 3039 3045 3049 3056 3060 3066 3075 3082 3089
2994 2994 2997 3001 3004 3001 3007 3013 3018 3022 3027 3031 3033 3034 3034 3032 3030 3028 3027 3025 3025 3026 3028 3033 3039 3044 3051 3057 3063 3070 3078 3085
2991 2992 2991 2994 2994 2996 3004 3008 3012 3017 3022 3026 3028 3029 3028 3026 3025 3023 3022 3021 3020 3021 3022 3026 3033 3040 3047 3052 3058 3066 3075 3081
2983 2986 2987 2989 2990 2995 2999 3004 3008 3013 3018 3021 3023 3023 3023 3022 3020 3018 3017 3016 3015 3015 3018 3022 3028 3035 3041 3048 3055 3063 3071 3077
2979 2982 2985 2986 2987 2991 2996 3000 3005 3009 3013 3016 3018 3019 3019 3018 3016 3015 3013 3012 3012 3013 3016 3019 3022 3029 3036 3044 3053 3061 3067 3073
2976 2979 2981 2983 2985 2990 2993 2997 3000 3005 3009 3012 3014 3015 3016 3014 3012 3011 3010 3009 3008 3011 3013 3016 3020 3028 3034 3041 3048 3057 3063 3069
2973 2974 2977 2979 2984 2988 2991 2993 2997 3001 3005 3008 3010 3011 3013 3011 3009 3009 3009 3009 3008 3010 3013 3017 3022 3026 3031 3037 3045 3052 3058 3062
2969 2971 2973 2976 2980 2984 2987 2989 2994 2998 3001 3005 3007 3009 3011 3008 3008 3008 3009 3009 3009 3012 3015 3018 3024 3027 3032 3037 3043 3050 3054 3057
2967 2969 2970 2972 2975 2979 2983 2987 2990 2994 2998 3001 3004 3006 3008 3007 3006 3007 3009 3011 3012 3014 3018 3022 3025 3028 3033 3037 3041 3045 3049 3054
2967 2967 2968 2970 2972 2975 2982 2984 2988 2991 2994 2997 3000 3003 3006 3005 3006 3007 3009 3011 3014 3016 3019 3022 3024 3027 3030 3034 3038 3042 3045 3049
2966 2965 2966 2967 2969 2973 2974 2978 2982 2986 2989 2992 2996 2999 3002 3003 3004 3006 3008 3009 3012 3015 3017 3020 3021 3023 3027 3031 3035 3038 3041 3044
2964 2963 2963 2964 2967 2969 2971 2972 2977 2981 2984 2988 2992 2995 2998 3000 3002 3003 3005 3008 3010 3012 3015 3016 3019 3022 3025 3028 3031 3033 3036 3038
2961 2960 2959 2961 2963 2966 2967 2970 2973 2977 2981 2985 2989 2992 2995 2997 2999 3001 3003 3005 3007 3010 3012 3014 3017 3020 3022 3025 3027 3028 3031 3033